Theta_e
350 349 350 348 351 351 351 351 352 347 344 342 342 343 343 342 342 342 341 342 343 347 347 347 347 349 349 349 348 345 345 345 344 346 346 345 349 350 353 351 347 349 350
348 349 351 347 350 349 349 350 351 352 350 346 347 343 341 344 345 347 348 350 351 351 350 350 350 346 343 344 343 344 344 349 349 350 353 348 349 350 351 354 343 345 348
348 349 349 348 347 348 350 353 349 352 351 351 350 350 348 345 350 352 350 350 351 351 351 345 344 343 345 342 336 338 339 340 350 351 349 343 345 350 351 352 348 347 349
347 350 346 344 346 350 350 350 349 352 351 352 352 352 352 352 354 352 351 351 350 348 345 346 343 341 338 341 343 341 333 337 341 345 348 350 349 343 348 342 338 342 345
346 347 349 345 347 352 350 349 353 349 351 352 353 353 353 353 353 352 351 351 350 348 346 345 345 348 345 341 337 335 335 330 340 346 350 349 348 339 342 341 343 343 341
347 345 341 348 353 352 351 349 347 351 351 352 353 352 351 353 354 353 351 349 350 351 351 352 352 351 344 339 341 341 335 330 336 340 347 349 347 340 340 341 341 346 347
349 344 345 348 350 352 352 347 346 349 353 351 346 344 345 345 346 347 348 346 343 343 344 344 345 350 354 351 347 340 337 337 335 342 346 347 347 343 339 347 349 347 346
346 349 349 345 347 346 347 347 344 343 343 343 341 339 337 336 336 337 338 339 341 342 343 344 344 346 349 352 349 346 340 333 335 346 346 346 347 343 337 345 347 349 345
349 348 343 342 346 347 348 348 341 336 333 334 335 336 338 339 340 341 341 341 341 342 342 343 344 345 346 347 350 350 349 346 339 339 346 349 347 346 337 335 343 344 342
348 341 340 340 342 341 337 334 332 332 334 335 337 337 337 341 343 342 341 343 347 344 342 342 344 345 346 347 347 346 348 354 345 345 348 348 348 346 342 339 335 339 341
347 345 346 344 347 343 339 336 336 336 335 339 346 350 348 351 355 355 354 354 356 351 347 346 347 346 346 345 345 347 348 349 348 348 345 347 348 342 345 344 343 337 339
346 346 348 349 350 347 349 339 336 336 341 349 354 355 355 356 355 354 355 352 351 347 347 346 348 346 347 347 350 347 348 346 339 342 336 334 349 338 344 346 344 343 341
345 348 348 350 350 349 352 348 351 348 352 353 355 356 357 356 357 354 355 355 354 355 353 352 351 353 346 346 350 334 341 341 341 335 336 340 349 338 333 349 345 344 343
345 346 348 348 346 349 351 348 351 352 352 353 356 357 356 348 355 356 356 355 355 355 356 354 352 353 350 348 351 345 346 350 347 337 346 339 337 338 342 350 344 344 345
347 347 349 348 350 349 348 351 354 353 354 354 353 358 357 355 355 356 359 357 359 357 354 354 353 355 354 354 353 351 344 351 352 346 343 339 341 340 345 344 341 339 345
347 348 348 347 351 352 352 353 355 353 353 357 354 357 359 357 356 357 356 357 356 357 357 355 356 356 357 355 356 355 349 350 351 351 347 344 343 346 343 337 336 339 341
347 348 348 346 352 352 354 353 353 353 351 353 355 356 359 359 359 354 355 353 354 355 357 359 355 355 353 350 349 350 348 354 354 352 350 348 346 346 342 339 341 343 345
345 349 349 349 348 354 353 351 354 355 351 352 353 356 357 355 360 353 354 347 346 355 342 354 355 356 353 353 347 348 344 352 350 343 346 349 345 343 343 343 342 343 347
344 348 349 351 352 352 354 357 357 357 355 354 353 357 356 355 359 356 353 350 352 355 354 353 355 356 354 355 357 349 345 350 351 343 340 341 335 340 342 342 339 340 344
344 347 347 350 351 354 355 355 356 359 355 356 355 358 357 353 357 355 355 353 356 358 356 356 356 356 356 358 357 353 344 349 351 345 342 332 332 334 339 342 341 342 341
344 348 347 352 353 355 356 354 353 355 356 354 356 355 355 350 353 355 358 356 358 358 357 358 354 356 358 354 357 354 351 351 350 347 334 330 333 335 336 338 338 339 340
345 346 348 349 353 355 354 356 357 354 355 357 355 355 357 354 352 353 356 359 359 359 358 359 355 355 355 355 356 353 349 349 348 346 341 337 337 338 336 339 337 337 336
347 347 348 350 353 351 352 353 355 357 354 357 355 349 353 352 355 357 355 354 355 357 361 359 359 357 355 357 356 355 349 348 347 347 344 341 338 337 335 337 336 335 336
348 347 347 348 350 352 351 353 356 353 354 356 358 356 354 354 351 352 354 356 360 362 361 363 360 359 357 355 356 358 355 354 349 349 343 341 342 337 334 336 336 337 338
349 350 348 349 351 352 352 350 352 355 353 355 358 354 354 353 355 356 355 357 362 357 362 362 359 358 355 358 359 358 354 353 352 348 350 341 341 336 336 337 339 336 336
352 351 352 350 351 353 353 351 350 353 355 352 356 360 357 357 355 355 356 357 358 362 360 358 355 355 352 356 354 354 353 353 351 348 347 340 335 337 338 337 336 335 337
Wind_Speed
18 19 17 16 15 17 18 19 20 21 21 21 23 23 23 23 22 20 18 15 15 13 12 12 11 11 10 11 11 14 14 14 13 12 14 15 15 14 14 15 13 16 15
24 21 19 16 15 15 16 17 18 18 19 19 20 19 20 18 18 16 15 13 11 11 10 9 8 8 8 8 8 9 10 11 11 10 12 13 15 12 12 14 14 15 15
25 22 20 17 16 14 15 14 15 16 16 17 17 17 16 15 14 13 11 10 9 8 7 7 6 5 4 4 5 5 5 6 7 8 9 10 12 12 15 15 14 15 14
26 22 20 18 16 14 14 13 14 14 13 15 15 16 14 14 12 11 10 9 8 7 6 4 3 3 3 3 3 2 2 3 4 5 4 9 8 10 10 11 13 14 14
27 23 21 18 15 14 13 14 14 13 13 13 14 14 13 13 11 10 8 7 6 5 4 3 4 4 4 3 4 4 3 3 4 2 3 9 10 11 11 12 11 13 15
29 24 22 19 15 15 14 14 13 13 11 11 11 11 11 11 10 9 8 7 6 6 7 7 6 5 4 5 5 5 4 5 5 4 3 8 14 10 11 11 12 12 13
27 25 23 19 17 16 15 13 12 12 10 9 8 8 8 8 7 7 6 6 7 6 6 6 6 6 5 6 5 5 6 6 7 4 5 13 17 8 12 12 13 12 13
28 25 22 19 17 15 13 12 10 9 8 7 6 5 5 5 5 5 6 7 6 6 6 6 6 6 7 7 7 7 7 6 7 7 6 18 12 10 11 13 14 14 13
25 26 22 19 16 14 12 10 8 7 7 6 5 4 3 2 3 4 6 6 6 7 7 7 7 8 8 8 7 7 7 9 10 10 8 15 16 13 13 13 15 16 15
25 22 19 16 15 13 11 8 7 7 6 5 3 3 3 3 4 5 4 7 6 7 7 7 7 8 8 8 9 7 7 11 11 13 11 12 21 17 14 15 15 17 17
27 22 19 18 14 13 9 8 8 8 7 8 7 5 2 3 5 6 6 7 9 10 8 8 6 9 7 7 9 7 6 6 8 5 14 16 14 22 17 15 16 18 19
28 28 22 17 16 15 9 10 10 9 8 4 5 3 2 5 5 6 6 6 8 10 9 5 4 10 9 8 10 17 6 2 10 12 15 22 15 5 14 18 16 15 17
17 28 25 21 17 19 15 11 10 9 5 4 5 8 6 4 5 10 9 10 11 10 10 7 9 15 11 3 5 13 8 13 8 17 18 19 30 16 13 20 21 19 18
20 23 22 21 14 18 13 11 11 13 7 9 8 7 6 2 6 8 10 8 10 11 9 7 8 15 12 14 9 16 27 28 19 24 20 22 20 20 19 24 22 22 20
20 20 25 18 11 18 14 6 7 10 16 8 5 8 5 3 2 6 8 6 5 7 10 6 5 11 14 14 13 12 16 28 23 22 27 26 11 25 21 21 23 20 23
21 25 23 17 13 10 11 7 3 4 8 6 10 11 7 2 1 3 6 8 7 5 8 9 6 5 10 8 12 13 11 10 17 19 24 24 15 15 18 22 28 18 24
23 24 20 17 15 10 9 9 6 5 5 9 7 11 8 5 3 3 6 8 3 4 10 7 13 6 2 7 10 14 6 13 12 10 6 10 8 11 19 18 12 15 19
25 26 21 15 19 13 12 9 9 6 5 9 12 10 8 4 6 1 5 4 5 6 9 3 7 5 7 10 8 6 10 9 10 9 10 10 7 10 5 17 16 13 20
26 27 23 23 20 17 13 13 13 12 12 11 9 16 12 10 11 7 4 7 4 2 7 7 4 6 7 13 12 11 11 3 9 9 11 13 12 10 8 10 19 19 19
28 25 21 23 23 18 14 13 14 12 15 9 10 17 18 9 11 5 6 5 1 6 4 1 6 8 11 12 8 9 9 4 9 6 14 7 6 10 5 9 11 12 13
31 26 22 22 27 25 21 16 16 15 13 9 8 13 10 7 8 8 6 8 8 8 2 4 7 8 12 13 6 6 3 9 9 9 9 5 9 16 10 7 7 9 11
32 29 23 21 19 22 16 16 14 11 6 7 16 12 12 10 5 5 7 1 2 1 7 11 11 9 13 10 4 3 2 3 8 12 13 12 15 17 12 7 4 2 6
34 32 29 23 20 21 18 18 15 9 8 10 12 10 13 11 9 12 9 7 6 5 7 7 9 7 9 9 9 4 2 3 2 9 14 12 12 10 4 5 5 6 8
34 36 33 31 26 23 22 21 14 14 11 14 13 17 17 16 13 13 11 11 7 5 7 6 9 9 10 14 15 13 13 13 3 3 6 8 10 8 3 2 1 4 2
36 36 37 34 31 28 25 25 22 17 17 15 14 9 19 19 19 17 12 8 8 7 8 9 11 11 14 13 12 17 18 13 12 5 6 3 8 6 3 5 5 3 5
34 35 37 39 36 32 29 27 26 19 18 20 11 5 16 19 19 20 13 10 7 6 8 9 11 13 15 14 13 13 14 9 9 4 4 2 1 3 5 6 5 4 4
Wind_Direction
133 131 127 119 108 101 95 93 92 97 108 110 115 109 109 114 116 116 120 119 105 103 97 90 92 90 94 90 93 95 97 103 111 116 116 121 120 117 114 119 119 120 117
141 137 132 129 117 107 101 99 98 99 102 110 110 116 118 118 116 114 115 114 111 109 110 109 103 94 91 93 97 100 103 108 112 120 129 129 128 118 135 126 128 125 126
141 142 138 134 124 116 107 106 106 101 107 113 114 118 121 117 117 119 123 126 128 128 128 127 117 108 106 104 94 95 110 124 125 129 131 136 143 132 132 139 134 135 135
140 141 139 137 130 124 116 110 105 110 114 118 120 122 122 123 123 123 121 129 139 140 143 139 140 154 184 178 186 169 153 153 171 160 202 168 145 149 154 148 149 145 138
142 146 142 138 135 131 126 122 115 116 121 124 125 124 130 131 131 129 132 137 142 150 152 165 188 198 220 216 219 242 227 195 201 211 225 205 170 167 171 161 156 151 148
148 151 145 140 140 137 132 127 128 127 122 125 125 132 136 132 134 136 149 158 166 177 186 194 206 208 230 241 239 246 247 237 240 261 258 250 182 172 177 172 162 164 158
149 145 141 143 141 135 137 135 133 132 136 140 143 146 140 140 145 150 163 182 196 199 205 212 218 221 230 258 267 263 264 257 258 270 337 189 188 192 178 180 190 176 172
142 145 142 144 145 143 145 145 146 149 155 164 167 163 157 154 161 171 188 202 208 215 219 224 228 230 232 234 240 247 254 258 241 235 304 194 214 210 195 195 192 190 189
143 146 145 148 151 150 151 154 161 170 174 176 178 173 166 172 196 208 221 222 224 230 231 232 236 240 243 249 255 265 274 276 268 248 258 238 228 210 200 205 201 199 196
143 144 147 152 156 161 163 166 175 174 180 171 156 135 137 173 187 195 208 215 222 238 245 248 250 260 268 274 270 275 290 301 318 310 312 318 234 214 208 206 203 212 201
149 148 146 147 149 156 154 166 175 176 167 152 143 146 157 246 254 232 246 252 259 255 252 248 259 256 255 263 271 310 293 281 294 281 290 296 228 14 235 226 209 213 209
160 164 159 152 167 164 178 167 165 161 165 184 187 195 261 304 262 256 251 243 251 248 241 248 253 264 247 281 2 13 22 192 280 234 223 234 207 14 252 245 229 220 224
167 165 166 160 166 177 194 195 183 179 162 193 218 226 236 262 224 231 242 246 251 253 255 238 244 264 261 257 71 13 194 260 281 220 214 184 220 235 228 222 216 208 217
172 149 158 158 166 189 182 184 215 204 197 196 217 217 219 105 200 219 248 253 256 251 268 269 270 263 257 240 251 264 216 239 252 223 210 196 228 237 207 213 218 213 201
161 152 155 158 152 161 163 168 130 180 213 211 219 208 241 305 216 264 273 258 305 281 208 260 242 239 250 252 260 247 246 238 256 232 222 210 226 218 209 228 228 220 195
152 155 157 169 165 171 157 148 162 174 184 199 232 221 226 327 228 323 290 279 291 295 277 280 281 271 284 317 295 263 269 255 241 226 215 209 220 197 231 249 229 232 198
152 156 162 168 172 188 179 189 198 236 264 229 216 231 213 213 224 271 316 293 180 246 280 316 289 283 301 352 11 3 84 142 137 157 132 180 198 224 239 242 263 207 208
157 161 165 170 184 184 186 182 204 251 234 232 243 212 216 208 208 235 332 294 276 315 243 328 37 25 7 1 5 14 29 135 116 111 119 121 111 34 230 240 223 245 215
168 165 171 174 178 182 188 209 227 235 242 249 230 224 212 207 215 196 290 341 186 308 240 276 347 6 3 334 310 336 349 131 140 134 131 119 61 47 113 208 231 259 225
171 173 175 183 183 181 189 206 231 253 247 254 287 205 226 242 212 187 244 301 5 192 178 288 360 346 334 325 275 323 334 236 186 167 141 142 52 41 7 214 222 235 228
169 169 180 175 190 187 193 210 231 247 267 226 175 190 190 222 174 205 257 265 260 231 290 328 323 337 332 348 300 319 339 182 187 196 210 254 325 349 342 219 208 220 228
171 180 182 192 176 185 188 216 235 249 261 226 191 216 205 231 218 209 216 259 347 296 321 312 338 350 325 347 326 299 320 243 211 213 243 272 305 337 349 184 258 271 254
175 181 188 195 198 205 209 220 241 227 236 255 237 247 202 195 199 220 221 239 256 267 301 315 345 330 308 318 320 276 331 251 301 240 251 281 309 341 13 168 207 261 268
179 185 189 195 203 208 213 218 235 235 226 239 234 244 215 203 221 217 236 253 253 288 298 309 324 326 334 324 318 309 305 267 205 301 268 280 327 344 9 192 274 319 299
180 184 192 194 199 208 213 221 231 241 238 247 277 253 220 219 231 231 238 252 229 296 292 305 321 325 320 305 304 313 317 308 279 214 289 297 353 26 92 101 86 35 327
177 185 190 195 200 204 212 219 225 232 239 248 257 265 207 219 236 242 230 251 250 257 281 302 324 323 322 311 311 313 311 301 301 237 237 285 244 68 78 114 104 7 31